Weather History for Findlay, OH

Change the Weather History Date:

Thursday, May 15, 2014

  Actual Average Record
Temperature  
Mean Temperature 52 °F -  
Max Temperature 64 °F 70 °F 90 °F (1988)
Min Temperature 41 °F 49 °F 35 °F (1973)
Degree Days  
Heating Degree Days 12    
Growing Degree Days 2 (Base 50)    
Moisture  
Dew Point 51 °F    
Average Humidity 88    
Maximum Humidity 100    
Minimum Humidity 72    
Precipitation  
Precipitation 0.44 in - - ()
Sea Level Pressure  
Sea Level Pressure 29.83 in    
Wind  
Wind Speed 15 mph (SW)    
Max Wind Speed 23 mph    
Max Gust Speed 29 mph    
Visibility 7 miles    
Events Rain    
Averages and records for this station are not official NWS values.
T = Trace of Precipitation, MM = Missing Value Source: NWS Daily Summary

Daily Weather History Graph

Daily Weather History Graph

Search for Another Location

Airport:

Trip Planner

Search our weather history database for the weather conditions in past years. The results will help you decide how hot, cold, wet, or windy it might be!

Date:

Astronomy

May. 15, 2014 Rise Set
Actual Time 6:16 AM EDT 8:45 PM EDT
Civil Twilight 5:45 AM EDT 9:17 PM EDT
Nautical Twilight 5:06 AM EDT 9:56 PM EDT
Astronomical Twilight 4:23 AM EDT 10:39 PM EDT
Moon 9:52 PM EDT (5/15) 7:02 AM EDT (5/15)
Length of Visible Light 15h 31m
Length of Day
14h 28m
Full, 99% of the Moon is Illuminated
May 15
Full
May 21
Last Quarter
May 28
New
Jun 5
First Quarter
Jun 13
Full

Hourly Weather History & Observations

Time (EDT) Temp. Windchill Dew Point Humidity Pressure Visibility Wind Dir Wind Speed Gust Speed Precip Events Conditions
12:53 AM 57.0 °F - 55.9 °F 96% 29.86 in 8.0 mi East 15.0 mph - 0.08 in Rain Light Rain
1:33 AM 57.0 °F - 55.9 °F 96% 29.86 in 4.0 mi East 11.5 mph - 0.15 in Rain Rain
1:53 AM 57.0 °F - 55.9 °F 96% 29.83 in 7.0 mi East 11.5 mph - 0.19 in Rain Light Rain
2:37 AM 57.9 °F - 57.9 °F 100% 29.82 in 7.0 mi East 13.8 mph - 0.01 in Rain Light Rain
2:45 AM 57.9 °F - 57.9 °F 100% 29.81 in 7.0 mi East 11.5 mph - 0.01 in Rain Light Rain
3:01 AM 57.9 °F - 57.9 °F 100% 29.79 in 7.0 mi East 10.4 mph - 0.00 in Rain Light Rain
3:53 AM 60.1 °F - 59.0 °F 96% 29.75 in 9.0 mi ESE 10.4 mph - 0.01 in   Mostly Cloudy
4:53 AM 63.0 °F - 61.0 °F 93% 29.73 in 10.0 mi SSE 10.4 mph - 0.00 in   Mostly Cloudy
5:53 AM 64.0 °F - 60.1 °F 87% 29.71 in 10.0 mi SSE 13.8 mph - N/A   Overcast
6:35 AM 63.0 °F - 61.0 °F 93% 29.72 in 6.0 mi SSE 16.1 mph - 0.01 in Rain Light Rain
6:53 AM 63.0 °F - 61.0 °F 93% 29.70 in 9.0 mi SSE 12.7 mph - 0.02 in Rain Light Rain
7:22 AM 63.0 °F - 61.0 °F 93% 29.71 in 2.5 mi SSE 13.8 mph - 0.04 in Rain Rain
7:30 AM 63.0 °F - 61.0 °F 93% 29.71 in 3.0 mi South 12.7 mph - 0.04 in Rain Light Rain
7:46 AM 63.0 °F - 61.0 °F 93% 29.71 in 2.5 mi SSE 12.7 mph - 0.06 in Rain Light Rain
7:50 AM 62.6 °F - 60.8 °F 94% 29.71 in 3.0 mi SSE 12.7 mph - 0.07 in Rain Light Rain
7:53 AM 63.0 °F - 61.0 °F 93% 29.70 in 3.0 mi SSE 15.0 mph - 0.07 in Rain Light Rain
8:00 AM 63.0 °F - 61.0 °F 93% 29.71 in 3.0 mi SSE 15.0 mph - 0.00 in Rain Light Rain
8:18 AM 62.1 °F - 60.1 °F 93% 29.73 in 2.0 mi West 18.4 mph 26.5 mph 0.03 in Rain Rain
8:21 AM 60.1 °F - 57.9 °F 93% 29.73 in 2.5 mi WSW 19.6 mph 26.5 mph 0.03 in Rain Rain
8:26 AM 59.0 °F - 57.0 °F 93% 29.73 in 4.0 mi WSW 17.3 mph - 0.04 in Rain Light Rain
8:45 AM 57.9 °F - 55.9 °F 93% 29.74 in 7.0 mi West 19.6 mph - 0.04 in Rain Light Rain
8:53 AM 57.9 °F - 55.9 °F 93% 29.73 in 6.0 mi WSW 13.8 mph - 0.04 in Rain Light Rain
9:18 AM 57.0 °F - 55.0 °F 93% 29.74 in 10.0 mi WSW 16.1 mph - 0.01 in Rain Light Rain
9:26 AM 55.9 °F - 54.0 °F 93% 29.74 in 10.0 mi WSW 16.1 mph - 0.01 in   Overcast
9:53 AM 55.9 °F - 52.0 °F 87% 29.75 in 10.0 mi WSW 15.0 mph 26.5 mph 0.01 in   Overcast
10:36 AM 55.0 °F - 50.0 °F 83% 29.77 in 10.0 mi SW 17.3 mph 26.5 mph 0.00 in Rain Light Rain
10:53 AM 55.0 °F - 50.0 °F 83% 29.77 in 10.0 mi WSW 18.4 mph 26.5 mph 0.01 in   Overcast
11:31 AM 54.0 °F - 48.9 °F 83% 29.79 in 10.0 mi SW 15.0 mph 24.2 mph N/A   Overcast
11:53 AM 54.0 °F - 48.0 °F 80% 29.79 in 10.0 mi SW 20.7 mph 28.8 mph N/A   Overcast
12:07 PM 54.0 °F - 48.0 °F 80% 29.81 in 10.0 mi SW 17.3 mph - N/A   Overcast
12:53 PM 55.9 °F - 48.9 °F 77% 29.81 in 10.0 mi SW 19.6 mph - N/A   Overcast
1:53 PM 55.9 °F - 48.0 °F 75% 29.84 in 10.0 mi SSW 19.6 mph 24.2 mph N/A   Overcast
3:05 PM 55.0 °F - 46.0 °F 72% 29.86 in 10.0 mi WSW 18.4 mph 25.3 mph N/A   Overcast
3:53 PM 53.1 °F - 46.0 °F 77% 29.87 in 10.0 mi WSW 21.9 mph - N/A   Overcast
4:01 PM 52.0 °F - 45.0 °F 77% 29.88 in 10.0 mi WSW 20.7 mph 26.5 mph N/A   Overcast
4:53 PM 52.0 °F - 44.1 °F 74% 29.89 in 10.0 mi WSW 17.3 mph - N/A   Overcast
5:53 PM 48.9 °F - 45.0 °F 86% 29.91 in 8.0 mi West 20.7 mph 26.5 mph 0.00 in Rain Light Rain
6:04 PM 48.9 °F - 46.9 °F 93% 29.93 in 2.5 mi West 17.3 mph - 0.00 in Rain Light Rain
6:27 PM 48.0 °F - 46.0 °F 93% 29.93 in 3.0 mi West 15.0 mph - 0.01 in Rain Light Rain
6:35 PM 48.0 °F - 46.0 °F 93% 29.94 in 3.0 mi West 17.3 mph 24.2 mph 0.01 in   Overcast
6:43 PM 46.9 °F - 45.0 °F 93% 29.94 in 2.5 mi West 23.0 mph 28.8 mph 0.01 in Rain Light Rain
6:51 PM 46.4 °F 39.2 °F 44.6 °F 93% 29.95 in 6.0 mi West 18.4 mph 28.8 mph 0.01 in   Overcast
6:53 PM 46.9 °F - 44.1 °F 90% 29.94 in 7.0 mi West 17.3 mph 28.8 mph 0.01 in   Overcast
7:00 PM 46.9 °F - 44.1 °F 90% 29.95 in 10.0 mi West 19.6 mph 27.6 mph N/A   Overcast
7:53 PM 46.0 °F 38.8 °F 39.9 °F 79% 29.98 in 10.0 mi West 18.4 mph 24.2 mph N/A   Overcast
8:53 PM 45.0 °F 37.9 °F 37.9 °F 76% 30.01 in 10.0 mi West 16.1 mph - N/A   Overcast
9:40 PM 45.0 °F 39.3 °F 37.9 °F 76% 30.02 in 10.0 mi West 11.5 mph - N/A   Overcast
9:53 PM 44.1 °F 38.1 °F 37.9 °F 79% 30.02 in 10.0 mi West 11.5 mph - N/A   Overcast
10:53 PM 41.0 °F 36.4 °F 37.0 °F 86% 30.02 in - WSW 6.9 mph - N/A   Clear
11:53 PM 41.0 °F 35.2 °F 37.0 °F 86% 30.01 in - West 9.2 mph - N/A   Clear